CAPE
nan nan nan nan nan nan nan nan nan nan nan nan nan nan nan nan nan nan nan nan nan nan nan nan nan nan nan nan nan nan nan nan nan nan nan nan nan nan nan nan nan nan nan nan nan nan nan nan nan nan nan nan nan nan nan 0 0 0 0 0 0 0 0 0 0 nan nan nan nan nan nan nan nan nan nan nan nan nan 1 3 3 4 4 6 6 10
nan nan nan nan nan nan nan nan nan nan nan nan nan nan nan nan nan nan nan nan nan nan nan nan nan nan nan nan nan nan nan nan nan nan nan nan nan nan nan nan nan nan nan nan nan nan nan nan nan nan nan nan nan nan nan nan nan nan nan nan nan nan nan nan nan nan nan nan nan nan nan nan nan nan nan nan 1 1 2 4 4 4 5 7 7 12
nan nan nan nan nan nan nan nan nan nan nan nan nan nan nan nan nan nan nan nan nan nan nan nan nan nan nan nan nan nan nan nan nan nan nan nan nan nan nan nan nan nan nan nan nan nan nan nan nan nan nan nan nan nan nan nan nan nan nan nan nan nan nan nan nan nan nan nan nan nan nan nan nan nan nan 1 2 2 3 3 3 4 5 9 9 13
nan nan nan nan nan nan nan nan nan nan nan nan nan nan nan nan nan nan nan nan nan nan nan nan nan nan nan nan nan nan nan nan nan nan nan nan nan nan nan nan nan nan nan nan nan nan nan nan nan nan nan nan nan nan nan nan nan nan nan nan nan nan nan nan nan nan nan nan nan nan nan nan 0 0 1 2 3 3 4 4 4 6 7 11 11 13
nan nan nan nan nan nan nan nan nan nan nan nan nan nan nan nan nan nan nan nan nan nan nan nan nan nan nan nan nan nan nan nan nan nan nan nan nan nan 0 nan nan nan nan nan nan nan nan nan nan nan nan nan nan nan nan nan nan nan nan nan nan nan nan nan nan nan nan nan nan nan nan nan 1 1 2 3 4 4 4 6 6 7 9 12 12 16
nan nan nan nan nan nan nan nan nan nan nan nan nan nan nan nan nan nan nan nan nan nan nan nan nan nan nan nan nan nan nan nan nan nan nan nan 0 0 0 nan nan nan nan nan nan nan nan nan nan nan nan nan nan nan nan nan nan nan nan nan nan nan nan nan nan nan nan nan nan nan nan 0 1 1 3 3 4 4 5 6 6 8 10 14 14 17
nan nan nan nan nan nan nan nan nan nan nan nan nan nan nan nan nan nan nan nan nan nan nan nan nan nan nan nan nan nan nan nan nan nan nan nan 0 0 1 0 0 nan nan nan nan nan nan nan nan nan nan nan nan nan nan nan nan nan nan 0 0 0 0 nan nan nan nan nan nan nan 0 1 2 2 3 4 5 5 6 7 7 8 10 14 14 18
nan nan nan nan nan nan nan nan nan nan nan nan nan nan nan nan nan nan nan nan nan nan nan nan nan nan nan nan nan nan nan nan nan nan nan nan 0 0 0 nan nan nan nan nan nan nan nan nan nan nan nan nan nan nan nan nan nan 0 0 0 0 0 nan nan nan nan nan 0 1 1 3 4 4 4 5 5 6 6 6 8 8 10 11 13 13 15
nan nan nan nan nan nan nan nan nan nan nan nan nan nan nan nan nan nan nan nan nan nan nan nan nan nan nan nan nan nan nan nan nan nan nan nan nan nan nan nan nan nan nan nan nan nan nan nan nan nan nan nan nan nan nan nan nan nan nan nan nan nan nan nan nan nan 0 1 3 3 4 4 5 5 6 5 6 6 6 8 8 10 12 13 13 15
nan nan nan nan nan nan nan nan nan nan nan nan nan nan nan nan nan nan nan nan nan nan nan nan nan nan nan nan nan nan nan nan nan nan nan nan nan nan nan nan nan nan nan nan nan nan nan nan nan nan nan nan nan nan nan nan nan nan nan nan nan nan nan nan nan 0 1 2 4 4 5 6 6 6 7 6 6 6 7 7 7 9 11 12 12 12
nan nan nan nan nan nan nan nan nan nan nan nan nan nan nan nan nan nan nan nan nan nan nan nan nan nan nan nan nan nan nan nan nan nan nan nan nan nan nan nan nan nan nan nan nan nan nan nan nan nan nan nan nan nan nan nan nan nan nan nan nan nan nan nan nan 1 2 4 5 5 5 7 7 7 7 7 8 8 7 7 7 7 7 8 8 9
nan nan nan nan nan nan nan nan nan nan nan nan nan nan nan nan nan nan nan nan nan nan nan nan nan nan nan nan nan nan nan nan nan nan nan nan nan nan nan nan nan nan nan nan nan nan nan nan nan nan nan nan nan nan nan nan nan nan nan nan nan nan nan 0 0 2 4 5 6 6 6 7 8 8 9 8 8 8 8 8 8 6 6 5 5 8
nan nan nan nan nan nan nan nan nan nan nan nan nan nan nan nan nan nan nan nan nan nan nan nan nan nan nan nan nan nan nan nan nan nan nan nan nan nan nan nan nan nan nan nan nan nan nan nan nan nan nan nan nan nan nan nan nan nan nan nan nan nan 0 1 1 4 5 5 7 7 7 7 8 8 9 9 8 8 8 7 7 6 6 6 6 7
nan nan nan nan nan nan nan nan nan nan nan nan nan nan nan nan nan nan nan nan nan nan nan nan nan nan nan nan nan nan nan nan nan nan nan nan nan nan nan nan nan nan nan nan nan nan nan nan nan nan nan nan nan nan nan nan nan nan nan nan nan nan 1 4 4 5 5 6 7 7 7 7 8 8 8 8 8 8 7 7 7 6 7 7 7 9
nan nan nan nan nan nan nan nan nan nan nan nan nan nan nan nan nan nan nan nan nan nan nan nan nan nan nan nan nan nan nan nan nan nan nan nan nan nan nan nan nan nan nan nan nan nan nan nan nan nan nan nan nan nan nan nan nan nan nan nan nan 0 2 4 4 5 5 7 7 7 7 7 8 8 7 7 7 7 6 7 7 7 8 9 9 10
nan nan nan nan nan nan nan nan nan nan nan nan nan nan nan nan nan nan nan nan nan nan nan nan nan nan nan nan nan nan nan nan nan nan nan nan nan nan nan nan nan nan nan nan nan nan nan nan nan nan nan nan nan nan nan nan nan nan nan 0 0 1 3 4 4 5 5 7 7 7 7 8 7 7 7 6 5 5 5 7 7 7 9 10 10 11
nan nan nan nan nan nan nan nan nan nan nan nan nan nan nan nan nan nan nan nan nan nan nan nan nan nan nan nan nan nan nan nan nan nan nan nan nan nan nan nan nan nan nan nan nan nan nan nan nan nan nan nan nan nan nan nan nan nan nan 0 0 1 3 4 4 5 7 7 8 8 8 6 5 5 5 3 4 4 6 7 7 8 9 10 10 12
nan nan nan nan nan nan nan nan nan nan nan nan nan nan nan nan nan nan nan nan nan nan nan nan nan nan nan nan nan nan nan nan nan nan nan nan nan nan nan nan nan nan nan nan nan nan nan nan nan nan nan nan nan nan nan nan nan nan nan 0 0 1 3 4 4 6 7 7 7 7 6 5 3 3 2 2 4 4 5 8 8 9 10 11 11 13
nan nan nan nan nan nan nan nan nan nan nan nan nan nan nan nan nan nan nan nan nan nan nan nan nan nan nan nan nan nan nan nan nan nan nan nan nan nan nan nan nan nan nan nan nan nan nan nan nan nan nan nan nan nan nan nan nan nan nan 1 1 2 4 5 5 7 8 7 7 7 5 4 2 2 2 3 4 4 6 8 8 9 11 13 13 14
nan nan nan nan nan nan nan nan nan nan nan nan nan nan nan nan nan nan nan nan nan nan nan nan nan nan nan nan nan nan nan nan nan nan nan nan nan nan nan nan nan nan nan nan nan nan nan nan nan nan nan nan nan nan nan nan nan nan 0 1 1 3 5 6 6 7 7 6 5 5 4 2 2 2 2 5 5 5 6 9 9 10 13 14 14 15
nan nan nan nan nan nan nan nan nan nan nan nan nan nan nan nan nan nan nan nan nan nan nan nan nan nan nan nan nan nan nan nan nan nan nan nan nan nan nan nan nan nan nan nan nan nan nan nan nan nan nan nan nan nan nan nan nan nan 0 2 2 3 5 6 6 7 7 6 5 5 3 3 4 4 5 6 7 7 8 10 10 12 14 16 16 17
nan nan nan nan nan nan nan nan nan nan nan nan nan nan nan nan nan nan nan nan nan nan nan nan nan nan nan nan nan nan nan nan nan nan nan nan nan nan nan nan nan nan nan nan nan nan nan nan nan nan nan nan nan nan nan nan nan nan 0 2 2 4 5 6 6 7 5 4 3 3 3 5 7 7 7 8 8 8 9 12 12 14 16 18 18 19
nan nan nan nan nan nan nan nan nan nan nan nan nan nan nan nan nan nan nan nan nan nan nan nan nan nan nan nan nan nan nan nan nan nan nan nan nan nan nan nan nan nan nan nan nan nan nan nan nan nan nan nan nan nan nan nan nan nan 1 2 2 4 5 5 5 5 4 3 4 4 5 8 10 10 11 10 9 9 10 13 13 16 18 20 20 21
nan nan nan nan nan nan nan nan nan nan nan nan nan nan nan nan nan nan nan nan nan nan nan nan nan nan nan nan nan nan nan nan nan nan nan nan nan nan nan nan nan nan nan nan nan nan nan nan nan nan nan nan nan nan nan nan nan 0 1 2 2 3 3 3 3 3 3 4 5 5 9 10 13 13 13 13 12 12 12 16 16 18 20 21 21 19
nan nan nan nan nan nan nan nan nan nan nan nan nan nan nan nan nan nan nan nan nan nan nan nan nan nan nan nan nan nan nan nan nan nan nan nan nan nan nan nan nan nan nan nan nan nan nan nan nan nan nan nan nan nan nan nan nan nan 0 1 1 1 1 2 2 2 3 5 8 8 10 14 15 15 15 13 13 13 16 18 18 18 20 19 19 18
nan nan nan nan nan nan nan nan nan nan nan nan nan nan nan nan nan nan nan nan nan nan nan nan nan nan nan nan nan nan nan nan nan nan nan nan nan nan nan 0 0 nan nan nan nan nan nan nan nan nan nan nan nan nan nan nan nan nan nan nan nan 0 0 1 1 2 4 7 10 10 13 14 16 16 16 13 15 15 16 17 17 19 18 17 17 15
nan nan nan nan nan nan nan nan nan nan nan nan nan nan nan nan nan nan nan nan nan nan nan nan nan nan nan nan nan nan nan 0 nan nan nan nan nan nan nan 0 0 nan nan nan nan nan nan nan nan nan nan nan nan nan nan nan nan nan nan nan nan nan nan 0 0 2 5 8 12 12 13 15 15 15 14 14 15 15 17 18 18 19 16 15 15 13
nan nan nan nan nan nan nan nan nan nan nan nan nan nan nan nan nan nan nan nan nan nan nan nan nan nan nan nan nan nan nan 2 2 2 0 1 0 0 nan 0 0 0 0 0 0 nan nan nan nan nan nan nan nan nan nan nan nan nan nan nan nan nan nan nan nan 1 3 5 9 9 13 14 14 14 14 14 15 15 16 17 17 16 15 9 9 3
3 1 nan nan nan nan nan nan nan nan nan nan nan nan nan nan nan nan nan nan nan nan nan nan nan nan nan nan nan nan 1 6 4 4 3 2 2 2 0 1 1 1 0 0 0 nan nan nan nan nan nan nan nan nan nan nan nan nan nan nan nan nan nan nan nan nan 0 2 5 5 7 10 12 12 14 15 15 15 15 17 17 17 11 5 5 1
9 7 6 4 4 2 0 0 0 0 1 1 0 0 nan nan nan nan nan nan nan nan nan nan nan nan nan nan nan nan 1 4 4 4 4 2 2 2 1 2 2 1 0 nan nan nan nan nan nan nan nan nan nan nan nan nan nan nan nan nan nan nan nan nan nan nan nan 0 1 1 4 7 12 12 13 13 14 14 15 16 16 12 5 2 2 0
9 9 7 7 7 6 5 5 5 5 7 8 6 6 0 nan nan nan nan nan nan nan nan nan nan nan nan nan 0 0 1 3 5 5 0 4 2 2 2 2 2 2 1 nan nan nan nan nan nan nan nan nan nan nan nan nan nan nan nan nan nan nan nan nan nan nan nan 0 1 1 5 8 12 12 13 12 13 13 14 14 14 10 3 1 1 1
5 5 6 6 6 7 7 5 6 6 9 9 10 10 10 5 1 1 1 3 3 1 1 1 1 1 2 1 0 0 nan 1 5 5 3 1 1 1 1 0 0 1 1 1 1 nan nan nan nan nan nan nan 0 0 0 nan nan nan nan nan nan nan 0 1 1 1 2 3 5 5 5 6 6 6 7 7 7 7 6 7 7 6 3 2 2 2
5 5 5 6 6 6 6 5 6 6 8 10 12 12 15 12 6 6 2 5 5 3 3 3 3 4 5 5 4 4 2 1 0 0 1 0 nan nan 0 0 0 0 1 1 1 1 nan nan nan nan nan nan 0 0 1 1 1 0 0 0 0 1 3 4 4 5 5 4 5 5 5 3 4 4 4 4 4 4 4 5 5 6 7 2 2 2
5 5 5 4 4 4 2 4 5 5 5 9 11 11 16 16 9 9 8 6 6 7 9 9 9 6 6 7 5 5 6 6 0 0 1 0 0 0 0 1 1 1 1 1 1 1 1 1 1 1 1 0 1 1 0 0 0 1 1 1 1 1 2 2 2 3 3 2 2 2 2 1 4 4 2 2 2 2 3 5 5 6 9 6 6 3
3 4 4 3 3 2 2 2 4 4 5 7 10 10 12 12 10 10 9 8 8 11 12 13 13 11 9 6 5 5 4 4 3 3 3 1 0 0 1 1 1 1 1 1 1 2 2 2 2 1 1 0 nan nan 0 0 0 1 2 1 1 1 1 2 2 2 1 1 1 1 1 0 0 0 0 0 1 1 3 4 4 5 5 7 7 5
2 3 3 2 2 2 1 2 3 3 4 6 9 9 10 10 8 8 9 10 10 11 12 9 9 10 8 6 6 6 4 2 4 4 4 3 2 2 2 2 2 3 2 3 3 3 2 2 2 3 2 2 1 1 0 1 1 3 3 3 3 3 4 4 4 3 1 1 0 0 1 0 0 0 0 1 3 3 3 2 2 3 3 4 4 5
0 1 1 1 1 1 1 1 2 2 3 4 5 5 6 7 6 6 8 12 12 9 8 8 8 6 5 6 4 4 4 3 3 3 6 9 5 5 3 4 4 5 4 5 5 4 4 3 3 3 4 3 3 3 1 1 1 2 2 4 4 5 5 5 5 4 3 3 2 2 1 0 0 0 1 2 1 1 1 1 1 1 1 2 2 3
nan 0 0 0 0 1 1 2 2 2 2 2 3 3 4 4 5 5 3 9 9 12 5 4 4 3 3 2 2 2 3 4 1 1 8 15 8 8 7 6 6 7 7 5 5 6 7 7 7 5 3 3 2 2 2 2 2 1 2 3 3 4 3 3 3 3 3 4 3 3 2 1 0 0 0 nan nan nan nan nan nan nan nan 0 0 1
nan nan nan 0 0 0 0 1 1 1 1 1 1 1 1 1 3 3 3 4 4 5 5 2 2 2 4 5 1 1 1 11 2 2 4 8 8 8 10 9 9 8 10 8 8 13 13 11 11 9 5 3 2 2 1 1 1 1 1 2 2 2 2 2 2 3 2 3 3 3 2 1 0 0 nan nan nan nan nan nan nan nan nan nan nan nan
nan nan nan 0 0 0 0 0 0 0 1 1 1 1 1 1 3 3 4 1 1 1 3 3 3 1 2 2 1 1 2 8 5 5 1 nan 0 0 7 8 8 9 8 12 12 16 17 12 12 11 7 4 3 3 3 2 2 2 4 2 2 1 0 1 1 1 1 2 2 2 1 0 nan nan nan nan nan nan nan nan nan nan nan nan nan nan
nan nan nan nan nan 0 0 0 0 0 1 1 1 1 0 1 1 1 2 1 1 1 2 2 2 1 1 2 2 2 2 5 7 7 6 0 1 1 3 6 6 13 11 14 14 15 12 12 12 10 6 5 5 5 3 3 3 4 5 2 2 1 0 1 1 1 1 1 1 1 1 nan nan nan nan nan nan nan nan nan nan nan nan nan nan nan
0 nan nan nan nan 1 1 1 1 1 1 1 1 1 1 1 2 2 2 2 2 2 2 2 2 2 1 1 2 2 3 4 7 7 5 1 2 2 5 9 9 15 15 15 15 14 13 12 12 8 6 5 4 4 3 2 2 3 3 2 2 2 2 1 1 0 1 1 1 1 1 0 nan nan nan nan nan nan nan nan nan nan nan nan nan nan
0 nan 0 1 1 2 2 2 2 2 1 1 1 1 2 1 1 1 2 2 2 2 2 1 1 1 1 1 1 1 4 4 5 5 4 1 nan nan 9 17 17 17 16 13 13 11 12 11 11 8 6 5 3 3 3 2 2 1 2 2 2 2 1 0 0 0 1 1 1 1 0 nan nan nan nan nan nan nan nan nan nan 0 nan nan nan nan
1 0 2 3 3 3 3 3 3 3 2 2 3 3 3 3 2 2 2 3 3 4 2 1 1 1 3 2 4 4 4 3 0 0 1 1 1 1 5 16 16 18 17 15 15 9 8 9 9 6 6 5 4 4 2 2 2 1 0 2 2 2 1 0 0 0 1 1 0 0 0 nan nan nan nan nan nan nan nan nan nan nan nan nan nan nan
2 2 4 5 5 5 4 3 4 4 3 2 4 4 6 5 5 5 3 4 4 6 6 1 1 2 3 4 4 4 3 3 0 0 0 0 1 1 1 4 4 13 19 17 17 9 7 6 6 5 5 4 4 4 2 2 2 1 1 2 2 2 1 1 1 1 0 0 nan nan nan 0 0 0 nan nan nan nan nan nan nan nan nan nan nan nan
2 4 5 5 5 5 4 4 4 4 4 4 5 5 7 6 6 6 5 6 6 7 5 4 4 4 3 3 3 3 3 7 0 0 nan nan 0 0 1 1 1 4 12 13 13 10 7 6 6 5 4 4 4 4 2 2 2 1 1 1 1 1 1 1 1 0 0 nan nan nan 0 1 0 0 0 0 nan nan nan nan nan nan nan nan nan nan
4 4 5 4 4 3 4 4 4 4 4 5 5 5 6 8 6 6 7 7 7 7 8 8 8 5 4 3 3 3 4 7 6 6 1 nan nan nan nan nan nan nan 0 3 3 6 8 8 8 7 5 5 4 4 3 2 2 2 1 1 1 1 1 0 0 0 nan nan nan nan 0 2 1 1 0 0 nan nan nan nan nan nan nan nan nan nan
5 5 4 3 3 3 3 3 3 3 4 5 6 6 6 6 6 6 7 9 9 8 10 11 11 6 5 5 5 5 5 5 4 4 6 5 0 0 nan nan nan nan nan nan nan 1 3 10 10 12 9 4 3 3 2 2 2 2 1 1 1 1 1 0 0 nan 0 0 2 2 3 3 1 1 0 nan nan nan nan nan nan nan nan nan nan nan
4 3 3 2 2 2 2 2 2 2 3 3 5 5 5 6 7 7 6 8 8 9 8 8 8 6 6 7 6 6 7 5 4 4 4 5 5 5 2 nan nan nan nan nan nan nan nan 0 0 1 5 4 2 2 1 1 1 1 1 2 2 1 1 0 0 nan 0 2 7 7 7 1 0 0 0 0 nan nan nan nan nan nan nan nan nan nan
4 3 2 1 1 2 1 2 2 2 1 2 2 2 4 2 1 1 3 6 6 7 7 8 8 8 6 6 5 5 5 5 4 4 5 4 4 4 3 0 0 nan nan 0 0 nan nan nan nan nan 0 1 1 1 1 1 1 1 1 2 2 1 0 0 0 0 1 1 5 5 5 2 1 1 1 0 nan nan nan nan nan nan nan nan nan nan
3 1 0 1 1 1 1 1 2 2 1 1 1 1 2 1 2 2 3 5 5 5 6 7 7 9 6 5 3 3 5 4 4 4 5 4 4 4 3 1 1 1 2 4 4 4 3 2 2 2 3 5 1 1 0 1 1 1 1 1 1 1 1 1 1 1 2 1 2 2 4 2 2 2 1 1 0 0 nan nan nan nan nan nan nan nan
CIN
nan nan nan nan nan nan nan nan nan nan nan nan nan nan nan nan nan nan nan nan nan nan nan nan nan nan nan nan nan nan nan nan nan nan nan nan nan nan nan nan nan nan nan nan nan nan nan nan nan nan nan nan nan nan nan -0 -0 -0 -0 -0 -0 -0 -0 -0 -0 nan nan nan nan nan nan nan nan nan nan nan nan nan -0 -0 -0 -0 -0 -0 -0 -0
nan nan nan nan nan nan nan nan nan nan nan nan nan nan nan nan nan nan nan nan nan nan nan nan nan nan nan nan nan nan nan nan nan nan nan nan nan nan nan nan nan nan nan nan nan nan nan nan nan nan nan nan nan nan nan nan nan nan nan nan nan nan nan nan nan nan nan nan nan nan nan nan nan nan nan nan -0 -0 -0 -0 -0 -0 -0 -0 -0 -0
nan nan nan nan nan nan nan nan nan nan nan nan nan nan nan nan nan nan nan nan nan nan nan nan nan nan nan nan nan nan nan nan nan nan nan nan nan nan nan nan nan nan nan nan nan nan nan nan nan nan nan nan nan nan nan nan nan nan nan nan nan nan nan nan nan nan nan nan nan nan nan nan nan nan nan -0 -0 -0 -0 -0 -0 -0 -0 -0 -0 -0
nan nan nan nan nan nan nan nan nan nan nan nan nan nan nan nan nan nan nan nan nan nan nan nan nan nan nan nan nan nan nan nan nan nan nan nan nan nan nan nan nan nan nan nan nan nan nan nan nan nan nan nan nan nan nan nan nan nan nan nan nan nan nan nan nan nan nan nan nan nan nan nan -0 -0 -0 -0 -0 -0 -0 -0 -0 -0 -0 -0 -0 -0
nan nan nan nan nan nan nan nan nan nan nan nan nan nan nan nan nan nan nan nan nan nan nan nan nan nan nan nan nan nan nan nan nan nan nan nan nan nan -0 nan nan nan nan nan nan nan nan nan nan nan nan nan nan nan nan nan nan nan nan nan nan nan nan nan nan nan nan nan nan nan nan nan -0 -0 -0 -0 -0 -0 -0 -0 -0 -0 -0 -0 -0 -0
nan nan nan nan nan nan nan nan nan nan nan nan nan nan nan nan nan nan nan nan nan nan nan nan nan nan nan nan nan nan nan nan nan nan nan nan -0 -0 -0 nan nan nan nan nan nan nan nan nan nan nan nan nan nan nan nan nan nan nan nan nan nan nan nan nan nan nan nan nan nan nan nan -0 -0 -0 -0 -0 -0 -0 -0 -0 -0 -0 -0 -0 -0 -0
nan nan nan nan nan nan nan nan nan nan nan nan nan nan nan nan nan nan nan nan nan nan nan nan nan nan nan nan nan nan nan nan nan nan nan nan -0 -0 -0 -0 -0 nan nan nan nan nan nan nan nan nan nan nan nan nan nan nan nan nan nan -0 -0 -0 -0 nan nan nan nan nan nan nan -0 -0 -0 -0 -0 -0 -0 -0 -0 -0 -0 -0 -0 -0 -0 -0
nan nan nan nan nan nan nan nan nan nan nan nan nan nan nan nan nan nan nan nan nan nan nan nan nan nan nan nan nan nan nan nan nan nan nan nan -0 -0 -0 nan nan nan nan nan nan nan nan nan nan nan nan nan nan nan nan nan nan -0 -0 -0 -0 -0 nan nan nan nan nan -0 -0 -0 -0 -0 -0 -0 -0 -0 -0 -0 -0 -0 -0 -0 -0 -0 -0 -0
nan nan nan nan nan nan nan nan nan nan nan nan nan nan nan nan nan nan nan nan nan nan nan nan nan nan nan nan nan nan nan nan nan nan nan nan nan nan nan nan nan nan nan nan nan nan nan nan nan nan nan nan nan nan nan nan nan nan nan nan nan nan nan nan nan nan -0 -0 -0 -0 -0 -0 -0 -0 -0 -0 -0 -0 -0 -0 -0 -0 -0 -0 -0 -0
nan nan nan nan nan nan nan nan nan nan nan nan nan nan nan nan nan nan nan nan nan nan nan nan nan nan nan nan nan nan nan nan nan nan nan nan nan nan nan nan nan nan nan nan nan nan nan nan nan nan nan nan nan nan nan nan nan nan nan nan nan nan nan nan nan -0 -0 -0 -0 -0 -0 -0 -0 -0 -0 -0 -0 -0 -0 -0 -0 -0 -0 -0 -0 -0
nan nan nan nan nan nan nan nan nan nan nan nan nan nan nan nan nan nan nan nan nan nan nan nan nan nan nan nan nan nan nan nan nan nan nan nan nan nan nan nan nan nan nan nan nan nan nan nan nan nan nan nan nan nan nan nan nan nan nan nan nan nan nan nan nan -0 -0 -0 -0 -0 -0 -0 -0 -0 -0 -0 -0 -0 -0 -0 -0 -0 -0 -0 -0 -0
nan nan nan nan nan nan nan nan nan nan nan nan nan nan nan nan nan nan nan nan nan nan nan nan nan nan nan nan nan nan nan nan nan nan nan nan nan nan nan nan nan nan nan nan nan nan nan nan nan nan nan nan nan nan nan nan nan nan nan nan nan nan nan -0 -0 -0 -0 -0 -0 -0 -0 -0 -0 -0 -0 -0 -0 -0 -0 -0 -0 -0 -0 -0 -0 -0
nan nan nan nan nan nan nan nan nan nan nan nan nan nan nan nan nan nan nan nan nan nan nan nan nan nan nan nan nan nan nan nan nan nan nan nan nan nan nan nan nan nan nan nan nan nan nan nan nan nan nan nan nan nan nan nan nan nan nan nan nan nan -0 -0 -0 -0 -0 -0 -0 -0 -0 -0 -0 -0 -0 -0 -0 -0 -0 -0 -0 -0 -0 -0 -0 -0
nan nan nan nan nan nan nan nan nan nan nan nan nan nan nan nan nan nan nan nan nan nan nan nan nan nan nan nan nan nan nan nan nan nan nan nan nan nan nan nan nan nan nan nan nan nan nan nan nan nan nan nan nan nan nan nan nan nan nan nan nan nan -0 -0 -0 -0 -0 -0 -0 -0 -0 -0 -0 -0 -0 -0 -0 -0 -0 -0 -0 -0 -0 -0 -0 -0
nan nan nan nan nan nan nan nan nan nan nan nan nan nan nan nan nan nan nan nan nan nan nan nan nan nan nan nan nan nan nan nan nan nan nan nan nan nan nan nan nan nan nan nan nan nan nan nan nan nan nan nan nan nan nan nan nan nan nan nan nan -0 -0 -0 -0 -0 -0 -0 -0 -0 -0 -0 -0 -0 -0 -0 -0 -0 -0 -0 -0 -0 -0 -0 -0 -0
nan nan nan nan nan nan nan nan nan nan nan nan nan nan nan nan nan nan nan nan nan nan nan nan nan nan nan nan nan nan nan nan nan nan nan nan nan nan nan nan nan nan nan nan nan nan nan nan nan nan nan nan nan nan nan nan nan nan nan -0 -0 -0 -0 -0 -0 -0 -0 -0 -0 -0 -0 -0 -0 -0 -0 -0 -0 -0 -0 -0 -0 -0 -0 -0 -0 -0
nan nan nan nan nan nan nan nan nan nan nan nan nan nan nan nan nan nan nan nan nan nan nan nan nan nan nan nan nan nan nan nan nan nan nan nan nan nan nan nan nan nan nan nan nan nan nan nan nan nan nan nan nan nan nan nan nan nan nan -0 -0 -0 -0 -0 -0 -0 -0 -0 -0 -0 -0 -0 -0 -0 -0 -0 -0 -0 -0 -0 -0 -0 -0 -0 -0 -0
nan nan nan nan nan nan nan nan nan nan nan nan nan nan nan nan nan nan nan nan nan nan nan nan nan nan nan nan nan nan nan nan nan nan nan nan nan nan nan nan nan nan nan nan nan nan nan nan nan nan nan nan nan nan nan nan nan nan nan -0 -0 -0 -0 -0 -0 -0 -0 -0 -0 -0 -0 -0 -0 -0 -0 -0 -0 -0 -0 -0 -0 -0 -0 -0 -0 -0
nan nan nan nan nan nan nan nan nan nan nan nan nan nan nan nan nan nan nan nan nan nan nan nan nan nan nan nan nan nan nan nan nan nan nan nan nan nan nan nan nan nan nan nan nan nan nan nan nan nan nan nan nan nan nan nan nan nan nan -0 -0 -0 -0 -0 -0 -0 -0 -0 -0 -0 -0 -0 -0 -0 -0 -0 -0 -0 -0 -0 -0 -0 -0 -0 -0 -0
nan nan nan nan nan nan nan nan nan nan nan nan nan nan nan nan nan nan nan nan nan nan nan nan nan nan nan nan nan nan nan nan nan nan nan nan nan nan nan nan nan nan nan nan nan nan nan nan nan nan nan nan nan nan nan nan nan nan -0 -0 -0 -0 -0 -0 -0 -0 -0 -0 -0 -0 -0 -0 -0 -0 -0 -0 -0 -0 -0 -0 -0 -0 -0 -0 -0 -0
nan nan nan nan nan nan nan nan nan nan nan nan nan nan nan nan nan nan nan nan nan nan nan nan nan nan nan nan nan nan nan nan nan nan nan nan nan nan nan nan nan nan nan nan nan nan nan nan nan nan nan nan nan nan nan nan nan nan -0 -0 -0 -0 -0 -0 -0 -0 -0 -0 -0 -0 -0 -0 -0 -0 -0 -0 -0 -0 -0 -0 -0 -0 -0 -0 -0 -0
nan nan nan nan nan nan nan nan nan nan nan nan nan nan nan nan nan nan nan nan nan nan nan nan nan nan nan nan nan nan nan nan nan nan nan nan nan nan nan nan nan nan nan nan nan nan nan nan nan nan nan nan nan nan nan nan nan nan -0 -0 -0 -0 -0 -0 -0 -0 -0 -0 -0 -0 -0 -0 -0 -0 -0 -0 -0 -0 -0 -0 -0 -0 -0 -0 -0 -0
nan nan nan nan nan nan nan nan nan nan nan nan nan nan nan nan nan nan nan nan nan nan nan nan nan nan nan nan nan nan nan nan nan nan nan nan nan nan nan nan nan nan nan nan nan nan nan nan nan nan nan nan nan nan nan nan nan nan -0 -0 -0 -0 -0 -0 -0 -0 -0 -0 -0 -0 -0 -0 -0 -0 -0 -0 -0 -0 -0 -0 -0 -0 -0 -0 -0 -0
nan nan nan nan nan nan nan nan nan nan nan nan nan nan nan nan nan nan nan nan nan nan nan nan nan nan nan nan nan nan nan nan nan nan nan nan nan nan nan nan nan nan nan nan nan nan nan nan nan nan nan nan nan nan nan nan nan -0 -0 -0 -0 -0 -0 -0 -0 -0 -0 -0 -0 -0 -0 -0 -0 -0 -0 -0 -0 -0 -0 -0 -0 -0 -0 -0 -0 -0
nan nan nan nan nan nan nan nan nan nan nan nan nan nan nan nan nan nan nan nan nan nan nan nan nan nan nan nan nan nan nan nan nan nan nan nan nan nan nan nan nan nan nan nan nan nan nan nan nan nan nan nan nan nan nan nan nan nan -0 -0 -0 -0 -0 -0 -0 -0 -0 -0 -0 -0 -0 -0 -0 -0 -0 -0 -0 -0 -0 -0 -0 -0 -0 -0 -0 -0
nan nan nan nan nan nan nan nan nan nan nan nan nan nan nan nan nan nan nan nan nan nan nan nan nan nan nan nan nan nan nan nan nan nan nan nan nan nan nan -0 -0 nan nan nan nan nan nan nan nan nan nan nan nan nan nan nan nan nan nan nan nan -0 -0 -0 -0 -0 -0 -0 -0 -0 -0 -0 -0 -0 -0 -0 -0 -0 -0 -0 -0 -0 -0 -0 -0 -0
nan nan nan nan nan nan nan nan nan nan nan nan nan nan nan nan nan nan nan nan nan nan nan nan nan nan nan nan nan nan nan -0 nan nan nan nan nan nan nan -0 -0 nan nan nan nan nan nan nan nan nan nan nan nan nan nan nan nan nan nan nan nan nan nan -0 -0 -0 -0 -0 -0 -0 -0 -0 -0 -0 -0 -0 -0 -0 -0 -0 -0 -0 -0 -0 -0 -0
nan nan nan nan nan nan nan nan nan nan nan nan nan nan nan nan nan nan nan nan nan nan nan nan nan nan nan nan nan nan nan -0 -0 -0 -0 -0 -0 -0 nan -0 -0 -0 -0 -0 -0 nan nan nan nan nan nan nan nan nan nan nan nan nan nan nan nan nan nan nan nan -0 -0 -0 -0 -0 -0 -0 -0 -0 -0 -0 -0 -0 -0 -0 -0 -0 -0 -0 -0 -0
-0 -0 nan nan nan nan nan nan nan nan nan nan nan nan nan nan nan nan nan nan nan nan nan nan nan nan nan nan nan nan -0 -0 -0 -0 -0 -0 -0 -0 -0 -0 -0 -0 -0 -0 -0 nan nan nan nan nan nan nan nan nan nan nan nan nan nan nan nan nan nan nan nan nan -0 -0 -0 -0 -0 -0 -0 -0 -0 -0 -0 -0 -0 -0 -0 -0 -0 -0 -0 -0
-0 -0 -0 -0 -0 -0 -0 -0 -0 -0 -0 -0 -0 -0 nan nan nan nan nan nan nan nan nan nan nan nan nan nan nan nan -0 -0 -0 -0 -0 -0 -0 -0 -0 -0 -0 -0 -0 nan nan nan nan nan nan nan nan nan nan nan nan nan nan nan nan nan nan nan nan nan nan nan nan -0 -0 -0 -0 -0 -0 -0 -0 -0 -0 -0 -0 -0 -0 -0 -0 -0 -0 -0
-0 -0 -0 -0 -0 -0 -0 -0 -0 -0 -0 -0 -0 -0 -0 nan nan nan nan nan nan nan nan nan nan nan nan nan -0 -0 -0 -0 -0 -0 -0 -0 -0 -0 -0 -0 -0 -0 -0 nan nan nan nan nan nan nan nan nan nan nan nan nan nan nan nan nan nan nan nan nan nan nan nan -0 -0 -0 -0 -0 -0 -0 -0 -0 -0 -0 -0 -0 -0 -0 -0 -0 -0 -0
-0 -0 -0 -0 -0 -0 -0 -0 -0 -0 -0 -1 -0 -0 -0 -0 -0 -0 -0 -0 -0 -0 -0 -0 -0 -0 -0 -0 -0 -0 nan -0 -0 -0 -0 -0 -0 -0 -0 -0 -0 -0 -0 -0 -0 nan nan nan nan nan nan nan -0 -0 -0 nan nan nan nan nan nan nan -0 -0 -0 -0 -0 -0 -0 -0 -0 -0 -0 -0 -0 -0 -0 -0 -0 -0 -0 -0 -0 -0 -0 -0
-0 -0 -0 -0 -0 -0 -0 -0 -0 -0 -0 -0 -0 -0 -1 -1 -0 -0 -0 -0 -0 -0 -0 -0 -0 -0 -0 -0 -0 -0 -0 -0 -2 -2 -0 -0 nan nan -0 -0 -0 -0 -0 -0 -0 -0 nan nan nan nan nan nan -0 -0 -0 -0 -0 -0 -0 -0 -0 -0 -0 -0 -0 -0 -0 -0 -0 -0 -0 -0 -0 -0 -0 -0 -0 -0 -0 -0 -0 -0 -0 -0 -0 -0
-0 -0 -0 -0 -0 -0 -0 -0 -0 -0 -0 -0 -0 -0 -0 -0 -1 -1 -1 -1 -1 -1 -1 -0 -0 -0 -0 -0 -0 -0 -0 -0 -0 -0 -0 -0 -0 -0 -0 -0 -0 -0 -0 -0 -0 -0 -0 -0 -0 -0 -0 -0 -0 -0 -0 -0 -0 -0 -0 -0 -0 -0 -0 -0 -0 -0 -0 -0 -0 -0 -0 -0 -0 -0 -0 -0 -0 -0 -0 -0 -0 -0 -0 -0 -0 -0
-0 -0 -0 -0 -0 -0 -0 -0 -0 -0 -0 -0 -0 -0 -0 -0 -0 -0 -0 -0 -0 -0 -1 -0 -0 -0 -0 -0 -0 -0 -0 -0 -0 -0 -0 -0 -0 -0 -0 -0 -0 -0 -0 -0 -0 -0 -0 -0 -0 -0 -0 -0 nan nan -0 -0 -0 -0 -0 -0 -0 -0 -0 -0 -0 -0 -0 -0 -0 -0 -0 -0 -0 -0 -0 -0 -0 -0 -0 -0 -0 -0 -0 -0 -0 -0
-0 -0 -0 -0 -0 -0 -0 -0 -0 -0 -0 -0 -0 -0 -0 -0 -0 -0 -0 -0 -0 -0 -0 -0 -0 -0 -0 -0 -0 -0 -0 -0 -0 -0 -0 -0 -0 -0 -0 -0 -0 -0 -0 -0 -0 -0 -0 -0 -0 -0 -0 -0 -0 -0 -0 -0 -0 -0 -0 -0 -0 -0 -0 -0 -0 -0 -0 -0 -0 -0 -0 -0 -0 -0 -0 -0 -0 -0 -0 -0 -0 -0 -0 -0 -0 -0
-0 -0 -0 -0 -0 -0 -0 -0 -0 -0 -0 -0 -0 -0 -0 -0 -0 -0 -0 -0 -0 -0 -0 -0 -0 -0 -0 -0 -0 -0 -0 -0 -0 -0 -0 -0 -0 -0 -0 -0 -0 -0 -0 -0 -0 -0 -0 -0 -0 -0 -0 -0 -0 -0 -0 -0 -0 -0 -0 -0 -0 -0 -0 -0 -0 -0 -0 -0 -0 -0 -0 -0 -0 -0 -0 -0 -0 -0 -0 -0 -0 -0 -0 -0 -0 -0
nan -0 -0 -0 -0 -0 -0 -0 -0 -0 -0 -0 -0 -0 -0 -0 -0 -0 -0 -0 -0 -0 -0 -0 -0 -0 -0 -0 -0 -0 -0 -0 -0 -0 -0 -0 -0 -0 -0 -0 -0 -0 -0 -0 -0 -0 -0 -0 -0 -0 -0 -0 -0 -0 -0 -0 -0 -0 -0 -0 -0 -0 -0 -0 -0 -0 -0 -0 -0 -0 -0 -0 -0 -0 -0 nan nan nan nan nan nan nan nan -0 -0 -0
nan nan nan -0 -0 -0 -0 -0 -0 -0 -0 -0 -0 -0 -0 -0 -0 -0 -0 -0 -0 -0 -0 -0 -0 -0 -0 -0 -0 -0 -0 -0 -0 -0 -0 -2 -0 -0 -0 -0 -0 -0 -0 -0 -0 -0 -0 -0 -0 -0 -0 -0 -0 -0 -0 -0 -0 -0 -0 -0 -0 -0 -0 -0 -0 -0 -0 -0 -0 -0 -0 -0 -0 -0 nan nan nan nan nan nan nan nan nan nan nan nan
nan nan nan -0 -0 -0 -0 -0 -0 -0 -0 -0 -0 -0 -0 -0 -0 -0 -0 -0 -0 -0 -0 -0 -0 -0 -0 -0 -0 -0 -0 -0 -0 -0 -1 nan -7 -7 -0 -0 -0 -0 -0 -0 -0 -0 -0 -0 -0 -0 -0 -0 -0 -0 -0 -0 -0 -0 -0 -0 -0 -0 -0 -0 -0 -0 -0 -0 -0 -0 -0 -0 nan nan nan nan nan nan nan nan nan nan nan nan nan nan
nan nan nan nan nan -0 -0 -0 -0 -0 -0 -0 -0 -0 -0 -0 -0 -0 -0 -0 -0 -0 -0 -0 -0 -0 -0 -0 -0 -0 -0 -0 -0 -0 -0 -1 -0 -0 -0 -0 -0 -0 -0 -0 -0 -0 -0 -0 -0 -0 -0 -0 -0 -0 -0 -0 -0 -0 -0 -0 -0 -0 -0 -0 -0 -0 -0 -0 -0 -0 -0 nan nan nan nan nan nan nan nan nan nan nan nan nan nan nan
-0 nan nan nan nan -0 -0 -0 -0 -0 -0 -0 -0 -0 -0 -0 -0 -0 -0 -0 -0 -0 -0 -0 -0 -0 -0 -0 -0 -0 -0 -0 -0 -0 -1 -2 -1 -1 -0 -0 -0 -0 -0 -0 -0 -0 -0 -0 -0 -0 -0 -0 -0 -0 -0 -0 -0 -0 -0 -0 -0 -0 -0 -0 -0 -0 -0 -0 -0 -0 -0 -0 nan nan nan nan nan nan nan nan nan nan nan nan nan nan
-0 nan -0 -0 -0 -0 -0 -0 -0 -0 -0 -0 -0 -0 -0 -0 -0 -0 -0 -0 -0 -0 -0 -0 -0 -0 -0 -0 -0 -0 -0 -0 -0 -0 -0 -1 nan nan -0 -0 -0 -0 -0 -0 -0 -0 -0 -0 -0 -0 -0 -0 -0 -0 -0 -0 -0 -0 -0 -0 -0 -0 -0 -0 -0 -0 -0 -0 -0 -0 -0 nan nan nan nan nan nan nan nan nan nan -0 nan nan nan nan
-0 -0 -0 -0 -0 -0 -0 -0 -0 -0 -0 -0 -0 -0 -0 -0 -0 -0 -0 -0 -0 -0 -0 -0 -0 -0 -0 -0 -0 -0 -0 -0 -0 -0 -0 -0 -0 -0 -0 -0 -0 -0 -0 -0 -0 -0 -0 -0 -0 -0 -0 -0 -0 -0 -0 -0 -0 -0 -0 -0 -0 -0 -0 -0 -0 -0 -0 -0 -0 -0 -0 nan nan nan nan nan nan nan nan nan nan nan nan nan nan nan
-0 -0 -0 -0 -0 -0 -0 -0 -0 -0 -0 -0 -0 -0 -0 -0 -0 -0 -0 -0 -0 -0 -0 -0 -0 -0 -0 -0 -0 -0 -0 -0 -0 -0 -0 -0 -0 -0 -0 -0 -0 -0 -0 -0 -0 -0 -0 -0 -0 -0 -0 -0 -0 -0 -0 -0 -0 -0 -0 -0 -0 -0 -0 -0 -0 -0 -0 -0 nan nan nan -0 -0 -0 nan nan nan nan nan nan nan nan nan nan nan nan
-0 -0 -0 -0 -0 -0 -0 -0 -0 -0 -0 -0 -0 -0 -0 -0 -0 -0 -0 -0 -0 -0 -0 -0 -0 -0 -0 -0 -0 -0 -0 -0 -3 -3 nan nan -0 -0 -0 -0 -0 -0 -0 -0 -0 -0 -0 -0 -0 -0 -0 -0 -0 -0 -0 -0 -0 -0 -0 -0 -0 -0 -0 -0 -0 -0 -0 nan nan nan -0 -0 -0 -0 -0 -0 nan nan nan nan nan nan nan nan nan nan
-0 -0 -0 -0 -0 -0 -0 -0 -0 -0 -0 -0 -0 -0 -0 -0 -0 -0 -0 -0 -0 -0 -0 -0 -0 -0 -0 -0 -0 -0 -0 -0 -0 -0 -0 nan nan nan nan nan nan nan -1 -0 -0 -0 -0 -0 -0 -0 -0 -0 -0 -0 -0 -0 -0 -0 -0 -0 -0 -0 -0 -0 -0 -0 nan nan nan nan -0 -0 -0 -0 -0 -0 nan nan nan nan nan nan nan nan nan nan
-0 -0 -0 -0 -0 -0 -0 -0 -0 -0 -0 -0 -0 -0 -0 -0 -0 -0 -0 -0 -0 -0 -0 -0 -0 -0 -0 -0 -0 -0 -0 -0 -0 -0 -0 -0 -0 -0 nan nan nan nan nan nan nan -0 -0 -0 -0 -0 -0 -0 -0 -0 -0 -0 -0 -0 -0 -0 -0 -0 -0 -0 -0 nan -0 -0 -0 -0 -0 -0 -0 -0 -0 nan nan nan nan nan nan nan nan nan nan nan
-0 -0 -0 -0 -0 -0 -0 -0 -0 -0 -0 -0 -0 -0 -0 -0 -0 -0 -0 -0 -0 -0 -0 -0 -0 -0 -0 -0 -0 -0 -0 -0 -0 -0 -0 -0 -0 -0 -0 nan nan nan nan nan nan nan nan -1 -1 -0 -0 -0 -0 -0 -0 -0 -0 -0 -0 -0 -0 -0 -0 -0 -0 nan -0 -0 -3 -3 -0 -0 -0 -0 -0 -0 nan nan nan nan nan nan nan nan nan nan
-0 -0 -0 -0 -0 -0 -0 -0 -0 -0 -0 -0 -0 -0 -0 -0 -0 -0 -0 -0 -0 -0 -0 -0 -0 -0 -0 -0 -0 -0 -0 -0 -0 -0 -0 -0 -0 -0 -0 -0 -0 nan nan -0 -0 nan nan nan nan nan -1 -0 -0 -0 -0 -0 -0 -0 -0 -0 -0 -0 -0 -0 -0 -0 -0 -0 -1 -1 -0 -0 -0 -0 -0 -0 nan nan nan nan nan nan nan nan nan nan
-0 -1 -0 -0 -0 -0 -0 -0 -0 -0 -0 -0 -0 -0 -0 -0 -0 -0 -0 -0 -0 -0 -0 -0 -0 -0 -0 -0 -0 -0 -0 -0 -0 -0 -0 -0 -0 -0 -0 -0 -0 -0 -0 -0 -0 -0 -0 -0 -0 -0 -0 -0 -0 -0 -0 -0 -0 -0 -0 -0 -0 -0 -0 -0 -0 -0 -0 -0 -0 -0 -0 -0 -0 -0 -0 -0 -0 -0 nan nan nan nan nan nan nan nan
Wind_Speed
2 3 3 5 6 6 7 9 9 8 7 7 6 6 6 5 4 4 5 5 5 4 4 4 4 4 5 7 8 9 10 10 10 11 11 11 11 11 11 10 9 9 8 8 8 8 8 8 8 8 8 8 8 8 8 7 8 8 8 8 8 8 8 8 8 8 8 8 8 8 8 8 8 8 9 9 9 10 10 10 10 11 11 11 11 12
2 3 3 6 6 6 6 9 9 8 8 7 7 6 6 6 5 4 4 4 4 4 3 3 4 4 5 6 8 10 10 11 11 11 11 11 11 11 11 10 10 9 8 8 8 8 9 9 9 9 8 8 8 8 8 8 8 8 8 8 9 9 9 8 8 8 8 8 8 8 9 9 9 9 9 10 10 10 10 10 11 11 11 12 12 12
4 3 4 6 6 6 5 8 8 8 7 7 7 7 7 7 6 4 4 4 4 4 3 3 4 4 6 6 8 10 11 11 11 11 11 12 12 12 11 11 10 9 9 8 8 9 9 9 9 9 8 8 8 8 8 8 8 8 9 9 9 9 9 9 8 8 8 9 9 9 9 9 9 10 10 10 10 10 10 11 11 12 12 12 13 13
4 4 5 5 5 6 5 6 6 6 5 5 6 6 7 6 5 4 4 4 4 4 4 4 4 4 5 5 7 9 11 11 12 12 12 12 12 12 12 11 10 9 9 9 9 9 9 9 9 9 9 9 8 8 8 8 9 9 9 9 9 9 9 9 8 8 8 9 9 9 9 10 10 10 10 10 10 11 11 11 12 12 12 13 13 13
4 4 5 4 4 5 5 5 5 5 3 3 4 5 5 4 4 3 3 3 3 3 3 4 4 5 4 5 6 8 10 11 12 12 12 12 12 12 12 11 10 9 9 9 9 9 9 9 9 9 9 9 9 9 9 9 9 9 9 9 9 9 9 9 9 9 9 9 10 10 10 10 10 10 11 11 11 11 11 12 12 12 13 13 13 14
4 4 4 4 4 4 3 3 4 4 3 3 3 3 3 3 3 3 3 3 3 3 3 3 4 4 5 5 5 7 9 10 11 12 12 12 13 12 12 11 10 9 9 9 9 9 9 9 9 9 9 9 9 9 9 9 9 10 10 10 10 9 9 9 9 9 9 10 10 10 10 10 10 10 11 11 11 12 12 12 12 13 13 13 14 14
3 3 3 3 3 3 2 3 3 4 4 3 3 3 3 3 3 3 3 3 3 3 3 3 3 4 5 5 6 6 7 9 10 11 12 13 13 12 12 11 10 10 9 9 9 9 9 9 9 9 9 9 9 9 10 10 10 10 10 10 10 9 9 9 9 9 10 10 10 10 10 10 10 11 11 11 11 12 12 12 13 13 13 13 13 14
4 3 2 3 3 2 2 3 3 4 4 4 4 4 3 3 3 4 4 4 3 3 3 3 4 4 5 5 5 6 6 7 8 9 10 11 12 12 11 11 10 10 10 10 10 9 9 9 9 9 9 9 9 9 10 10 10 10 10 10 9 9 9 9 10 10 10 10 10 11 11 11 11 11 11 11 11 12 12 12 13 13 13 13 13 13
4 4 4 4 4 3 3 3 4 4 4 4 4 4 4 4 4 4 4 4 4 4 3 3 4 4 5 5 5 5 5 6 6 7 7 8 9 10 10 10 10 10 10 10 10 10 9 9 9 9 9 9 9 10 10 10 10 10 9 9 9 9 9 10 10 10 11 11 11 11 11 11 11 11 11 11 11 12 12 12 12 12 12 12 13 13
4 5 5 4 4 3 3 3 4 4 4 3 3 3 3 4 4 4 5 5 4 4 4 4 4 4 4 4 4 5 5 5 6 7 7 7 7 7 8 8 9 9 10 10 10 10 10 9 9 9 9 9 9 9 10 9 9 9 9 9 9 9 9 10 10 11 11 11 11 10 11 11 11 11 11 11 11 11 11 11 11 12 12 12 12 13
4 4 4 4 3 3 3 2 3 3 3 3 3 3 3 4 4 4 5 5 5 4 4 4 4 4 4 4 4 5 5 5 5 6 7 7 7 6 6 7 7 8 9 9 10 10 10 10 9 9 9 9 9 9 9 9 9 9 9 9 9 9 10 10 11 11 11 11 10 11 11 11 11 11 11 11 11 11 11 11 11 11 11 12 12 13
4 3 4 4 4 3 3 2 2 3 3 3 3 4 5 5 5 5 5 5 4 4 4 4 4 4 4 3 4 4 4 4 5 5 5 6 6 6 6 6 7 7 8 9 9 9 10 10 10 10 9 9 9 9 9 8 8 8 9 9 9 10 10 10 11 11 11 10 10 11 11 11 11 11 11 11 11 10 10 10 10 11 11 12 13 13
3 3 3 3 4 4 4 3 3 3 4 5 6 6 6 5 5 5 5 5 4 3 3 3 3 3 3 3 3 3 4 4 4 4 4 5 5 5 5 5 6 6 6 7 7 8 9 9 9 9 9 9 9 8 8 8 8 8 9 9 10 10 10 11 11 11 10 10 10 11 11 11 11 11 11 10 10 10 10 10 11 11 12 12 13 14
4 4 4 4 4 5 5 5 5 5 6 6 6 6 5 4 4 4 4 4 3 2 1 2 3 3 3 3 3 3 3 3 3 4 4 5 5 5 5 5 5 5 5 5 5 6 7 7 7 7 8 9 8 8 8 8 8 8 9 9 10 10 10 10 10 10 10 10 10 11 11 11 11 10 10 10 10 10 10 11 11 12 12 13 14 14
5 5 5 5 5 5 6 6 6 6 6 6 5 4 3 3 3 4 4 5 3 2 2 2 3 3 3 4 4 4 3 3 4 4 5 5 5 5 5 5 5 5 4 5 5 5 5 6 5 5 6 7 7 7 7 7 8 8 9 9 10 10 10 10 10 10 10 10 10 11 11 10 10 10 9 9 10 10 11 11 12 12 13 13 14 14
5 6 6 6 6 6 6 6 6 6 6 5 5 5 4 4 4 4 5 4 4 3 3 3 4 4 4 4 4 4 4 4 4 4 5 5 5 5 5 5 5 5 4 4 4 4 4 5 5 5 5 6 6 6 6 7 8 8 9 9 10 10 10 10 10 10 10 10 10 10 10 10 9 9 9 9 10 10 11 12 12 12 13 13 14 14
5 6 6 6 6 6 6 6 6 6 5 5 5 5 5 5 4 4 4 4 3 3 3 3 4 4 3 3 4 4 5 5 4 4 4 4 4 4 5 4 4 5 4 4 4 4 4 4 4 4 5 5 5 6 6 7 8 9 9 10 10 10 10 10 10 10 10 10 10 10 10 9 9 8 9 9 10 11 11 12 12 13 13 13 14 14
6 6 6 6 6 6 6 6 5 5 5 5 5 4 4 4 4 4 4 4 4 3 4 4 3 3 3 2 3 4 5 5 4 4 4 4 4 4 5 4 4 4 4 5 4 4 4 4 4 4 4 5 6 6 7 8 9 9 10 10 10 10 10 10 11 11 11 10 10 10 9 9 8 8 9 10 10 11 11 12 12 13 13 14 14 14
6 6 6 7 6 6 5 5 6 6 5 5 5 5 4 4 4 4 4 4 4 4 4 4 4 3 3 1 2 4 4 4 4 4 3 4 3 4 5 4 4 4 5 5 5 4 4 4 4 5 5 6 7 7 8 9 9 10 10 10 10 10 11 11 11 11 11 10 10 10 9 8 8 9 9 10 11 11 12 12 13 13 14 14 14 15
7 7 7 6 6 6 6 6 6 6 6 5 5 5 5 5 5 4 4 4 4 4 3 4 4 3 3 1 2 4 4 4 3 3 3 3 3 3 5 4 4 5 5 5 4 4 4 4 4 5 6 7 8 8 9 10 10 10 10 10 11 11 11 11 11 11 11 10 10 10 9 9 9 9 10 11 11 12 12 13 13 14 14 15 15 16
7 7 7 6 5 5 5 5 5 6 6 6 6 5 5 5 5 5 5 4 4 4 4 4 3 3 2 1 2 4 4 4 3 3 2 3 3 3 4 4 4 5 5 5 4 4 4 4 4 4 6 7 8 9 10 10 10 10 11 11 11 11 11 11 11 11 11 10 10 10 10 10 10 10 11 11 12 12 13 13 14 14 15 15 16 16
6 6 6 7 6 5 4 4 5 6 7 7 6 6 5 5 5 5 5 5 5 4 4 4 3 2 1 1 2 3 4 3 3 2 2 3 3 3 3 3 3 4 5 4 4 4 4 4 4 4 5 7 8 9 10 10 10 11 11 11 11 11 11 11 11 11 11 11 11 11 11 11 11 11 11 12 12 13 13 14 14 15 15 16 17 17
6 5 5 6 5 5 3 3 4 6 7 7 6 5 4 5 5 5 5 5 5 4 4 3 2 2 1 1 2 3 3 3 3 2 2 3 3 2 2 2 3 3 4 4 3 3 4 4 4 4 5 8 9 10 10 11 11 11 11 11 11 11 11 11 11 11 11 11 11 11 11 11 12 12 12 12 13 13 14 14 15 15 16 17 17 18
6 5 4 4 4 3 3 3 4 4 5 5 5 4 3 3 4 4 4 4 4 3 3 2 2 2 3 3 3 3 4 3 3 3 3 3 3 2 1 2 3 4 4 3 3 3 3 4 4 4 4 7 9 10 10 11 11 11 11 11 11 11 11 11 11 11 11 11 12 12 12 12 12 12 12 13 13 14 14 15 15 16 17 18 18 18
6 5 3 3 3 3 3 4 4 5 5 4 4 4 4 4 3 3 3 3 3 3 3 3 3 4 4 4 4 4 4 4 4 3 3 3 3 3 2 2 3 3 3 3 3 3 3 4 4 4 4 6 8 9 10 10 10 10 10 10 10 11 11 11 11 11 11 12 12 12 12 12 12 12 13 13 13 14 15 15 16 17 18 19 19 19
7 6 5 4 4 5 5 6 6 7 7 6 5 5 5 5 4 4 4 4 4 4 4 4 4 4 4 4 4 4 4 5 5 4 3 2 2 3 2 2 3 3 3 3 3 3 3 4 4 4 4 5 6 8 8 9 9 9 9 10 10 10 10 11 11 11 12 12 13 13 13 13 13 13 13 13 14 14 15 16 17 18 19 19 19 18
10 9 8 7 7 8 8 8 9 10 11 9 8 7 6 6 5 5 5 5 5 5 5 5 5 4 4 4 3 3 4 4 5 4 4 3 3 3 3 2 2 3 3 3 3 3 4 4 4 4 4 4 4 5 6 7 7 8 8 9 9 10 10 11 11 12 12 13 13 13 13 13 13 13 13 14 14 15 15 16 17 18 19 18 16 15
11 11 10 10 10 10 11 11 12 12 13 13 12 11 9 7 6 6 6 6 6 6 5 5 5 4 4 4 3 3 4 4 4 4 4 3 3 3 3 2 2 2 3 3 3 4 5 5 5 5 4 3 3 3 4 5 6 6 7 8 9 10 11 11 12 12 13 13 14 14 14 14 14 14 14 14 14 15 16 17 18 18 17 14 12 9
12 12 12 12 12 12 12 12 13 13 14 15 14 13 10 7 6 6 6 6 6 6 6 5 5 4 3 3 3 3 3 4 4 5 5 3 3 3 2 2 2 2 2 2 3 3 4 4 4 4 3 3 3 3 3 3 4 5 7 8 10 10 11 12 13 13 14 14 14 14 15 14 14 14 14 15 15 16 17 18 17 16 13 11 9 8
10 11 11 12 12 12 12 11 12 13 15 16 16 14 10 7 6 6 5 6 6 6 6 5 5 4 3 3 3 3 3 4 4 5 5 4 3 3 2 2 2 2 2 2 2 3 3 3 2 2 2 2 2 3 2 3 3 4 5 7 9 10 11 12 13 13 14 14 15 15 15 15 15 15 15 15 16 16 17 18 16 14 10 9 8 8
9 9 9 10 10 10 10 9 10 11 13 14 15 13 10 8 6 5 5 5 6 6 5 5 5 4 4 3 3 3 2 3 5 6 5 4 3 2 2 2 2 2 2 2 2 2 2 1 1 1 1 2 2 3 3 3 4 4 5 6 7 8 10 11 12 12 13 14 14 15 15 15 15 15 15 15 16 16 17 17 15 12 9 8 8 8
8 8 7 8 8 8 7 7 8 8 9 10 11 10 9 8 7 6 5 5 5 5 5 5 5 5 4 4 3 3 2 2 4 6 6 4 3 2 2 3 2 2 2 2 2 2 2 2 1 0 1 2 2 3 3 4 4 5 5 5 6 6 8 9 10 10 11 12 12 13 13 14 14 14 15 16 16 16 16 16 15 12 8 8 8 8
7 6 6 6 6 6 6 6 6 7 7 7 8 8 8 8 7 6 5 5 5 5 5 5 5 5 5 5 4 3 2 2 4 6 6 4 2 2 2 3 3 2 2 2 2 2 2 2 2 2 2 3 3 3 4 4 5 5 5 6 5 6 7 7 7 8 8 9 9 10 11 12 13 14 14 15 15 15 15 15 14 12 10 8 8 8
8 7 6 6 6 5 5 6 6 6 7 7 7 7 7 7 7 7 6 5 5 5 5 5 5 5 5 4 4 3 3 3 4 6 6 4 3 2 2 3 3 2 2 2 2 3 3 3 3 3 3 3 3 3 4 4 5 5 5 5 5 5 5 6 6 6 6 7 7 7 8 9 10 12 12 13 13 14 14 14 14 14 13 10 9 9
8 8 7 7 6 6 6 6 6 7 7 7 7 7 6 6 6 6 6 6 6 5 5 5 5 5 4 4 4 3 3 3 5 6 6 5 3 2 2 3 3 2 2 2 2 2 2 3 4 4 3 3 3 3 3 4 4 5 5 5 5 5 5 5 5 6 6 6 6 6 7 7 7 8 9 10 11 12 13 14 15 15 15 14 12 10
8 8 8 8 7 7 7 7 7 7 7 7 6 6 6 6 6 6 6 6 6 6 5 5 4 4 4 4 3 3 3 3 4 6 7 5 4 3 2 2 3 3 3 3 3 2 3 3 4 4 4 4 4 3 3 4 4 4 4 5 5 5 5 5 5 6 6 6 6 6 6 6 6 7 8 10 11 13 14 14 15 15 15 15 14 13
8 8 8 8 8 8 8 7 7 7 7 7 6 6 6 6 6 6 6 6 6 6 5 5 5 5 5 4 4 3 3 3 4 5 6 5 4 3 3 2 3 3 3 3 3 3 3 3 4 4 4 4 4 3 3 3 3 4 4 4 4 5 5 5 5 6 6 6 6 6 6 6 6 7 7 10 11 12 13 13 14 14 14 14 14 14
8 8 8 8 8 8 8 8 7 7 7 7 6 6 7 6 6 6 5 5 6 6 6 5 5 5 7 6 5 5 4 4 4 5 6 5 4 4 3 3 3 3 3 3 3 3 3 4 4 4 4 4 4 4 4 4 4 4 4 4 4 4 5 5 5 6 6 6 6 7 7 6 6 6 7 7 8 8 9 9 9 10 11 11 12 13
8 8 8 8 8 8 7 7 7 7 6 6 6 6 6 6 6 6 5 5 5 6 6 5 5 5 6 6 6 6 5 5 4 5 5 4 4 4 4 3 3 3 3 3 3 4 4 4 4 4 4 4 4 5 4 4 4 5 5 5 5 5 5 6 6 6 6 6 6 6 6 6 6 6 6 6 6 7 7 7 7 8 8 8 9 10
7 7 7 7 7 7 7 7 6 6 6 6 6 6 5 5 5 5 4 4 4 5 5 5 4 4 4 4 5 5 5 4 4 5 4 4 3 3 4 3 3 3 4 4 4 5 5 5 5 5 5 4 4 4 4 4 5 5 6 5 4 4 5 5 6 6 6 6 6 6 6 5 5 6 6 6 7 7 7 6 6 7 7 7 7 7
7 6 6 6 6 6 6 6 5 5 6 6 6 5 5 5 5 4 4 4 4 4 4 4 3 3 3 3 4 4 5 5 5 5 5 5 5 5 4 4 4 4 4 4 5 5 6 5 5 5 5 5 6 6 6 6 6 7 7 6 5 5 6 6 6 6 6 6 6 6 6 6 6 6 6 7 7 7 7 7 7 7 7 7 7 7
6 6 5 5 5 5 5 5 6 6 6 6 6 6 6 5 5 5 5 5 4 4 3 3 3 3 3 3 4 4 5 5 6 6 5 5 5 5 5 5 4 4 4 5 5 5 5 5 5 5 6 5 5 6 6 6 7 7 7 7 7 7 6 6 6 6 6 6 5 5 6 6 6 6 6 7 7 7 7 8 8 9 8 7 7 7
6 5 5 5 5 5 6 6 6 6 6 6 6 6 6 5 5 5 5 5 5 5 4 4 4 4 4 4 4 4 5 5 6 6 5 5 5 5 6 5 5 5 5 5 5 5 5 5 5 5 5 5 5 6 6 6 7 7 7 7 6 6 4 4 4 4 5 5 5 5 5 5 6 6 6 6 7 7 7 8 9 10 9 8 7 7
5 5 5 5 5 5 6 6 6 6 6 6 6 6 5 6 6 6 5 5 5 5 5 4 4 4 4 4 4 4 5 5 5 5 5 5 5 5 5 5 5 5 5 5 4 4 4 5 5 5 5 5 6 6 7 6 6 7 7 7 7 6 5 4 4 5 5 5 5 5 5 5 6 6 6 7 7 7 7 7 7 8 8 8 8 8
5 5 5 5 5 6 6 6 6 5 5 5 5 5 5 6 6 6 5 5 5 5 5 5 4 4 4 4 4 4 4 4 4 4 4 4 5 5 5 5 5 5 5 5 4 4 4 4 5 5 4 5 6 6 7 7 7 7 7 7 7 7 7 6 6 6 5 5 5 5 5 6 6 6 6 7 7 7 7 7 7 8 8 7 8 8
5 5 6 6 6 6 6 6 6 5 5 5 5 5 5 6 5 5 5 5 5 5 5 5 4 4 4 4 4 3 3 3 4 4 4 4 4 5 5 4 4 4 4 4 5 5 5 5 5 4 4 5 6 7 7 7 7 7 7 7 7 7 6 6 6 6 5 6 5 6 6 6 6 6 7 7 7 7 7 7 7 8 8 8 8 8
6 6 6 6 6 6 6 6 5 5 5 5 5 5 5 5 5 5 5 5 5 4 4 4 4 5 5 4 4 4 4 4 3 3 4 4 4 5 4 4 4 4 3 3 4 5 5 5 5 5 5 5 6 6 6 7 7 7 7 6 6 6 6 5 5 5 5 5 6 6 6 6 6 7 7 7 8 7 7 7 7 8 8 8 8 8
6 6 6 6 6 5 5 5 5 5 5 5 5 5 5 5 5 5 5 5 5 4 4 4 5 5 5 5 5 5 4 4 3 3 3 3 4 4 4 4 3 3 3 3 4 4 5 5 6 6 6 6 6 6 7 7 7 7 7 6 6 6 6 6 5 5 5 6 6 6 5 5 6 7 7 8 7 7 7 7 7 7 7 7 8 8
6 6 6 6 5 5 5 5 5 5 5 6 5 5 5 5 6 6 5 5 5 5 4 5 5 5 5 5 5 5 4 4 3 3 3 3 3 4 4 4 4 3 3 3 3 4 4 5 6 7 7 7 7 7 7 7 7 7 6 6 6 6 6 6 6 5 5 6 6 6 5 5 6 6 7 8 8 8 8 8 7 7 7 7 7 8
6 5 5 5 5 6 6 6 6 6 6 6 6 5 5 5 5 5 5 5 5 5 5 5 5 5 5 5 5 4 4 4 4 3 3 3 3 3 3 4 4 3 3 3 3 4 4 4 6 8 10 11 10 9 8 8 7 7 6 6 5 5 6 6 5 5 5 5 5 5 6 6 6 6 7 8 9 9 9 8 8 7 7 7 7 8
6 5 5 6 6 6 6 6 6 6 6 6 5 5 5 4 4 4 4 4 5 5 5 5 5 5 5 5 4 4 4 4 4 4 3 3 3 3 3 3 4 4 3 3 3 3 3 3 4 6 9 13 14 12 9 8 7 6 6 5 5 5 5 5 5 5 5 5 5 5 6 6 6 6 6 7 8 8 8 8 8 8 7 7 7 8
Wind_Direction
133 139 154 172 174 176 187 190 187 182 179 180 180 181 181 188 191 189 181 194 204 211 213 218 219 217 213 218 223 228 231 231 231 229 228 226 224 222 220 219 219 220 224 230 236 240 244 247 248 249 249 250 252 255 259 263 268 273 278 281 284 285 286 286 287 289 291 292 294 296 298 298 297 296 294 292 292 292 294 295 296 296 296 295 294 294
148 145 158 181 184 183 182 193 193 190 183 184 184 184 183 186 188 188 187 201 210 216 219 223 225 225 221 218 220 224 227 230 230 230 229 228 226 223 221 219 219 221 225 230 236 240 243 246 247 248 249 250 253 256 261 266 270 275 279 281 283 284 284 285 286 288 289 291 293 294 294 293 292 290 289 289 290 291 293 294 295 295 295 294 294 294
159 160 167 185 192 192 181 190 197 199 190 186 185 186 187 189 190 190 190 198 204 210 219 223 226 228 228 222 221 221 224 228 230 231 230 229 227 224 222 220 220 222 227 231 236 240 242 244 246 247 249 251 253 257 261 266 270 274 277 279 280 280 281 281 283 285 287 288 289 289 289 288 287 286 287 289 290 291 292 293 294 294 294 294 294 294
165 169 169 179 194 200 191 184 189 199 199 189 184 185 189 194 196 196 195 198 200 204 214 219 224 227 230 226 222 220 222 226 229 231 232 231 228 226 223 221 221 224 228 232 236 239 242 244 245 247 249 251 254 258 262 265 269 272 274 275 275 276 276 277 278 280 282 283 283 284 284 284 285 286 288 290 291 292 292 292 293 293 293 294 294 294
174 175 167 170 187 200 196 177 177 184 192 188 184 184 191 199 203 204 201 206 210 213 215 218 221 224 228 228 223 222 223 226 229 232 233 232 230 227 224 222 223 226 230 234 237 239 241 243 244 246 249 252 256 259 263 266 268 270 271 271 271 271 271 273 274 276 278 279 280 280 282 283 285 287 290 291 292 292 292 292 292 293 293 294 294 294
175 174 163 169 180 187 182 170 170 175 178 185 186 188 194 205 213 215 212 215 220 222 221 221 222 224 227 229 226 224 225 227 230 233 234 234 232 229 226 224 225 228 232 235 237 239 241 242 244 247 250 254 258 261 264 267 268 269 269 269 269 269 269 270 272 274 275 276 278 279 281 283 285 287 289 291 291 291 292 292 292 292 293 293 294 295
162 163 158 170 175 174 167 167 174 179 183 186 188 192 198 207 217 224 226 225 226 228 229 228 227 227 228 227 225 223 224 227 231 234 236 235 233 230 227 226 228 230 233 236 238 239 241 243 245 249 253 257 261 264 267 268 268 268 268 268 267 267 268 269 271 273 274 275 277 278 280 282 285 286 288 289 290 290 291 291 292 292 292 293 294 295
155 156 167 177 173 169 174 175 181 188 193 190 190 192 197 203 211 219 226 227 228 229 230 230 228 227 227 222 219 217 219 222 225 227 231 232 231 229 227 227 229 231 234 236 238 239 240 243 247 251 256 260 264 267 269 269 269 268 268 267 267 267 268 269 270 272 273 274 276 278 280 283 284 286 287 288 288 289 290 291 291 292 293 294 295 296
159 162 177 185 182 177 183 182 185 190 199 200 199 198 198 201 204 208 214 219 220 219 222 226 226 224 220 214 211 211 214 218 219 220 222 223 222 222 223 224 227 230 233 234 236 238 240 244 248 253 258 263 266 268 270 269 269 268 267 267 266 266 267 268 269 270 272 274 276 279 281 283 285 286 287 288 288 289 289 290 292 293 294 295 296 297
166 167 173 185 188 188 192 183 175 175 194 210 218 220 216 210 206 205 209 213 210 206 209 219 223 222 214 205 202 204 208 217 223 226 227 227 226 225 223 226 227 229 231 232 234 236 240 245 250 255 260 264 266 268 268 268 268 267 266 265 265 265 265 266 268 269 271 274 277 280 283 285 286 287 287 287 288 289 290 291 292 294 296 297 298 298
175 172 171 178 186 196 205 174 146 144 175 205 228 240 244 232 223 217 218 215 206 196 196 207 217 221 215 201 195 196 201 210 217 223 228 230 232 233 233 234 234 233 232 232 234 237 240 246 251 256 260 262 264 265 265 264 264 263 263 263 263 263 264 265 267 269 271 275 278 282 284 286 287 287 287 288 288 289 290 292 294 296 297 298 299 299
179 177 176 175 178 186 203 160 128 128 162 192 212 225 230 229 227 227 229 227 216 199 190 193 203 213 218 208 198 193 195 205 210 213 217 219 222 224 228 230 232 232 230 231 233 236 240 245 249 253 256 258 259 259 260 260 260 260 260 260 261 261 262 264 266 269 272 276 279 282 284 286 287 287 287 288 288 290 292 294 296 298 299 299 299 299
180 177 181 180 181 184 195 176 164 165 183 197 207 212 214 210 212 219 231 237 233 218 193 188 192 201 211 216 212 204 200 208 211 213 214 214 213 213 216 220 222 223 223 226 227 230 234 239 244 247 249 250 251 252 252 254 255 256 257 258 259 260 262 264 266 269 273 276 280 282 284 285 286 286 287 288 290 292 294 296 298 299 299 299 299 299
180 179 187 191 193 193 195 190 189 191 197 202 208 211 209 189 186 199 219 230 232 226 204 205 203 202 203 211 215 216 213 216 217 218 220 218 214 211 212 216 218 219 219 224 227 228 228 231 236 239 239 240 242 244 243 247 250 253 255 256 258 260 262 264 267 271 274 277 280 282 283 283 284 285 287 289 292 295 297 299 300 300 300 300 299 298
183 183 191 199 201 199 198 197 199 201 202 202 203 202 184 160 169 188 206 215 209 193 189 219 225 222 212 204 202 204 209 217 221 223 224 221 213 207 208 215 218 219 220 227 231 231 227 229 232 234 231 231 234 238 241 247 251 254 255 257 259 261 263 266 269 272 275 278 279 280 281 282 283 285 288 292 295 298 300 301 301 301 301 300 299 298
187 188 196 202 204 203 199 198 200 203 202 197 193 188 177 175 180 190 203 205 195 180 189 213 224 226 215 189 181 185 197 208 218 224 226 222 209 199 201 211 218 221 221 226 231 232 227 227 230 233 232 231 234 240 246 254 258 259 259 261 262 263 265 268 270 273 276 277 278 279 279 280 282 286 291 295 298 301 302 302 302 301 301 300 299 298
193 196 201 205 207 206 199 197 199 201 197 190 186 186 187 188 189 192 203 199 190 185 199 210 220 225 216 175 167 176 193 201 210 219 226 223 206 190 192 206 218 225 226 227 229 230 227 225 225 226 228 227 231 238 245 253 257 260 262 263 264 266 267 269 271 273 275 276 276 276 276 279 283 288 293 298 300 302 302 302 302 301 301 300 300 300
198 201 203 207 209 206 196 193 193 195 191 184 182 185 194 197 194 192 198 196 196 197 205 212 220 229 237 191 161 161 188 198 204 210 220 224 206 184 181 200 218 231 237 234 231 228 226 225 225 225 226 228 233 239 245 252 257 260 263 264 266 267 268 269 271 272 273 274 273 273 274 278 283 289 294 298 300 301 301 301 301 301 301 301 301 301
202 204 205 208 209 206 197 191 190 191 190 184 179 179 190 195 195 193 197 199 202 205 206 214 222 234 249 232 137 138 175 193 201 206 215 224 208 181 168 191 213 229 240 239 235 229 224 224 225 226 227 230 235 240 246 252 256 260 263 265 266 267 268 269 270 271 271 271 270 270 272 277 282 288 293 296 298 299 300 300 301 301 302 302 302 302
205 206 207 207 208 206 202 194 191 189 188 180 175 176 184 188 191 194 199 200 205 210 211 218 224 231 242 232 123 127 159 184 200 210 220 233 221 192 167 189 209 225 235 236 231 225 222 222 222 221 223 227 233 239 245 251 255 259 262 264 265 267 267 268 269 269 269 268 268 268 270 275 280 286 290 293 296 297 299 299 300 301 302 303 303 303
211 211 210 206 206 207 206 195 188 184 181 174 174 179 186 185 189 194 196 197 200 206 210 219 224 226 229 214 144 136 156 180 198 213 228 239 234 213 177 191 210 226 236 233 226 219 218 223 224 221 218 225 231 238 244 250 255 258 262 264 265 266 267 267 267 267 267 266 265 266 269 273 278 283 287 291 293 295 297 298 300 301 302 303 303 303
217 215 210 207 208 210 208 189 179 176 174 174 178 184 187 185 187 190 191 191 194 199 203 212 216 217 217 205 152 142 158 185 205 221 243 248 244 229 186 193 214 232 240 237 227 217 216 224 228 227 223 227 232 239 245 250 254 258 262 264 266 266 266 266 266 265 263 263 264 265 268 272 277 281 286 289 291 293 295 297 299 301 303 303 303 303
226 223 214 209 209 209 202 178 168 167 172 179 185 189 186 183 183 185 184 186 190 194 197 201 203 202 205 204 172 158 165 192 213 232 248 254 251 235 173 193 218 236 245 242 233 223 220 227 230 232 231 232 236 240 245 250 255 258 262 264 265 266 265 264 263 262 261 261 263 265 268 272 276 281 285 287 289 291 293 296 298 301 303 303 304 303
230 231 225 212 204 199 188 167 160 163 171 181 186 187 180 177 176 176 175 178 180 182 182 183 189 197 203 204 198 188 180 191 205 223 241 255 258 250 176 194 223 241 248 247 241 236 233 236 237 237 236 235 237 241 245 250 254 258 261 263 263 263 263 262 261 260 260 261 263 266 269 273 277 281 284 286 288 290 292 296 299 301 303 304 304 303
222 225 222 203 191 186 180 165 162 165 170 175 178 175 167 164 162 159 159 166 169 170 171 182 195 204 202 202 202 200 186 186 193 206 228 247 260 261 235 219 236 251 256 253 248 245 248 249 248 245 242 238 237 240 244 249 253 256 259 260 260 260 260 260 260 260 261 263 265 268 271 275 279 281 283 285 287 289 292 296 299 302 304 304 304 302
211 212 209 193 184 183 183 173 171 173 175 175 174 170 164 161 160 161 166 171 173 175 178 191 202 206 202 200 201 200 187 183 188 197 212 232 253 258 250 234 241 254 263 263 258 253 254 257 255 251 247 241 238 238 242 246 251 254 256 257 257 258 258 260 261 262 264 266 269 272 275 278 280 282 283 284 286 289 293 297 300 303 304 305 303 301
207 206 204 194 188 187 189 184 182 181 181 180 177 172 166 164 167 173 181 181 180 180 185 197 204 206 203 202 201 197 187 182 184 191 201 220 242 251 246 234 238 251 265 270 269 265 263 262 261 258 253 248 243 240 241 244 248 251 253 255 256 257 260 262 265 267 269 272 274 276 278 280 281 282 283 284 287 290 294 298 301 303 305 305 303 299
206 204 203 197 194 192 194 192 190 188 186 184 180 176 172 171 176 183 188 182 180 182 192 199 202 203 203 203 200 194 189 184 182 182 187 209 233 245 246 239 240 249 266 274 274 269 263 259 256 254 254 253 252 248 243 243 245 248 251 254 257 260 263 267 270 272 274 276 278 279 280 281 281 282 282 284 287 291 295 299 302 303 304 303 300 295
208 206 205 202 199 198 198 198 196 193 191 188 184 181 180 182 186 189 187 178 178 185 195 200 201 202 203 202 198 194 195 192 182 175 178 200 225 240 243 239 240 247 260 272 271 263 252 247 244 245 249 253 255 252 246 241 244 248 252 257 260 263 266 269 272 275 277 278 279 279 280 280 281 282 283 285 288 291 295 299 301 303 303 300 297 294
208 206 206 204 203 202 202 201 199 197 195 192 189 187 187 191 195 195 184 177 180 187 193 196 198 199 199 200 201 204 206 195 178 169 175 196 217 231 232 231 232 234 243 262 268 264 252 239 229 225 236 248 252 252 250 247 251 255 259 261 264 266 268 271 273 275 277 278 278 279 279 279 280 281 283 285 288 291 294 298 300 301 300 297 295 293
204 203 204 202 201 201 201 201 200 199 197 195 193 192 191 194 198 199 190 184 185 189 191 192 194 197 196 198 204 210 210 181 164 162 174 195 214 225 223 227 225 220 218 242 264 276 279 257 203 175 195 237 249 253 256 258 260 263 265 267 268 269 270 272 274 275 276 277 277 277 278 279 280 281 283 285 287 290 293 296 298 299 297 295 292 290
201 201 201 198 196 196 197 198 198 198 197 196 196 194 193 194 196 198 197 192 191 192 193 193 195 197 199 205 210 214 206 152 150 158 174 192 213 224 221 226 223 216 206 226 250 272 286 289 289 233 235 257 260 260 259 260 262 263 265 267 268 270 272 273 274 275 276 276 277 277 278 279 280 281 282 284 287 289 291 293 294 294 293 292 290 289
199 199 199 193 190 189 192 194 194 194 194 196 196 195 192 191 193 196 199 197 197 197 198 198 199 201 204 210 215 219 214 151 149 159 174 190 210 223 221 225 227 224 215 224 238 254 267 278 289 294 287 279 271 265 260 259 259 260 263 265 267 269 272 273 274 275 277 278 278 279 279 279 280 281 282 284 285 287 288 290 290 289 288 288 288 288
197 197 197 192 188 186 188 190 191 192 193 196 197 195 190 187 188 192 198 199 200 202 205 204 204 204 205 208 211 214 217 177 161 164 178 193 212 225 224 226 229 231 231 232 237 243 253 261 269 276 279 275 271 266 263 260 257 257 259 263 267 272 275 276 276 277 279 279 279 279 279 280 280 281 282 283 284 285 287 288 288 287 287 286 286 286
196 197 197 195 193 191 190 191 192 193 193 197 197 195 190 185 184 186 191 195 199 203 207 209 210 209 207 208 207 209 213 192 175 174 183 196 209 224 229 229 228 229 235 239 242 246 253 257 261 266 273 275 274 271 267 263 259 258 259 263 268 273 276 278 278 279 279 278 278 278 278 279 280 281 282 284 285 286 287 288 288 288 287 285 283 282
196 197 198 198 197 196 195 196 196 196 196 197 198 196 192 186 182 180 182 187 192 197 203 209 214 217 218 219 218 216 217 201 185 181 186 194 204 214 226 225 223 222 229 236 241 247 257 262 265 267 271 274 275 274 268 261 256 255 256 259 262 266 269 271 273 275 276 275 276 276 278 280 281 282 283 286 287 288 289 289 289 288 285 283 280 277
197 198 199 199 199 200 200 200 200 200 199 198 199 199 198 194 188 183 181 182 186 191 197 204 211 218 223 227 229 230 229 216 197 189 189 193 199 208 221 223 218 215 220 229 238 247 256 263 265 265 264 265 268 271 272 267 262 257 256 256 258 260 263 265 267 268 270 271 273 276 278 280 282 282 284 287 289 290 290 289 287 286 284 281 279 275
197 199 199 199 199 200 201 201 202 201 200 199 199 200 202 202 199 194 189 188 190 193 198 203 209 215 220 225 229 232 232 220 206 196 194 192 196 205 217 222 220 218 220 229 240 250 256 260 263 263 262 263 265 270 276 279 278 276 275 274 274 274 273 272 270 268 268 269 272 274 276 277 280 283 287 291 292 292 290 287 286 286 286 284 281 277
197 198 198 197 198 199 201 201 201 200 199 198 198 198 199 200 200 198 196 193 195 199 203 206 209 212 213 217 221 224 226 216 204 194 192 190 194 204 215 222 226 228 228 233 240 247 251 254 258 261 266 270 273 275 278 280 282 284 287 286 283 278 275 274 273 272 272 273 275 275 276 278 282 287 291 292 291 290 289 289 290 291 291 291 287 282
195 196 196 194 194 195 197 197 194 190 188 189 188 188 187 188 188 189 191 192 194 198 202 205 207 208 206 208 213 216 216 211 202 194 187 183 189 201 213 220 227 231 232 235 239 244 248 253 258 262 266 271 274 277 277 277 279 282 286 284 280 276 275 278 280 281 280 279 278 279 281 284 288 289 288 287 287 287 289 291 292 292 291 290 289 287
193 193 193 189 187 188 189 186 180 175 173 172 173 173 174 174 173 174 178 182 185 188 189 193 197 201 201 207 213 214 212 210 206 201 191 185 190 199 209 216 223 230 236 239 242 245 248 254 259 262 264 267 271 273 274 274 277 279 281 279 280 281 284 283 281 279 276 274 275 277 281 283 284 283 283 283 284 284 285 286 286 286 285 282 281 282
191 190 187 181 178 177 176 172 168 165 164 166 167 170 171 170 170 169 171 174 175 174 174 178 183 189 195 202 206 209 208 207 206 202 192 184 187 196 208 215 221 228 237 243 245 245 244 249 254 259 261 266 269 272 272 274 275 277 277 277 280 282 282 276 271 268 267 269 272 275 278 280 281 281 282 283 283 282 281 280 280 280 279 277 275 275
188 186 181 174 170 167 165 165 164 164 165 167 170 171 171 170 170 171 172 173 171 169 168 175 182 188 196 199 199 198 196 200 201 200 192 184 186 196 211 219 224 229 235 240 244 244 243 245 248 253 257 261 265 268 272 274 274 274 273 274 276 278 277 272 269 269 270 274 278 280 281 282 284 284 285 284 283 282 280 278 275 274 272 272 272 272
182 180 175 168 165 165 166 168 167 166 166 169 170 170 169 172 173 175 177 176 174 171 170 174 184 196 208 213 211 204 193 184 184 188 192 188 190 198 214 224 228 230 231 235 239 244 247 247 247 249 252 255 259 262 265 268 270 271 271 271 270 269 268 274 280 282 280 279 279 280 282 284 285 286 285 282 281 279 276 274 272 270 270 271 272 272
176 174 171 166 167 169 171 170 167 166 166 169 170 171 170 173 176 179 182 182 181 179 175 174 182 199 215 220 223 221 208 183 173 172 181 185 189 195 207 218 226 228 229 232 236 241 246 250 250 250 249 249 251 254 258 262 265 267 268 267 267 266 265 271 276 279 279 279 279 279 280 283 285 286 284 282 280 278 276 275 276 276 275 274 274 273
174 174 172 169 170 172 171 167 164 164 166 169 172 173 172 173 175 179 183 185 187 187 182 180 188 204 218 220 223 223 220 201 183 172 169 173 180 187 196 205 213 221 226 231 236 240 244 249 253 254 252 250 249 250 252 256 261 265 267 267 267 268 268 270 272 274 276 278 279 280 282 286 287 285 284 283 282 280 279 278 277 277 277 275 273 271
177 176 173 170 170 170 168 164 163 164 167 170 173 175 175 173 174 176 182 186 188 189 186 188 198 210 221 221 220 219 219 213 201 186 176 172 174 178 184 190 197 206 217 229 237 242 246 250 253 255 256 256 256 255 253 254 257 261 265 267 269 269 270 271 272 273 275 276 279 282 287 288 286 283 283 284 284 283 280 278 276 275 274 274 272 271
177 176 172 168 167 166 166 164 165 166 169 171 173 175 176 174 174 176 180 185 188 191 193 196 205 214 221 222 221 219 219 219 215 206 197 188 183 180 179 179 183 193 206 221 235 244 250 252 252 252 252 255 258 259 259 258 258 260 263 266 269 271 272 273 274 275 274 274 276 279 283 282 282 283 286 286 285 282 280 278 275 273 272 271 272 272
177 175 170 167 167 167 169 168 168 169 171 172 173 173 175 174 176 179 182 186 191 196 201 205 209 214 219 220 219 219 220 222 221 217 211 206 201 194 186 182 183 190 201 211 223 234 245 248 245 242 241 244 250 256 259 259 259 260 263 265 267 270 272 273 275 275 275 275 276 276 276 276 279 283 285 284 282 280 280 278 277 275 274 274 274 274
177 173 169 169 171 173 173 171 171 172 173 173 173 172 171 172 177 184 190 193 198 203 209 210 212 215 218 218 217 216 217 220 222 221 219 215 212 207 199 192 192 197 204 209 215 222 231 238 236 232 228 229 235 243 252 256 258 260 261 262 264 266 269 271 273 274 276 278 279 279 277 275 274 274 274 275 277 279 281 282 281 281 279 277 276 276
174 172 171 173 174 174 173 172 172 173 174 174 173 172 170 171 179 187 195 198 202 206 211 212 214 215 217 216 215 214 214 217 220 223 224 220 216 213 208 202 202 206 214 218 223 227 233 240 239 232 223 219 221 226 238 246 253 257 260 260 261 263 265 269 272 275 278 280 281 280 276 273 270 269 268 273 278 282 284 284 284 283 282 282 281 281